This is the latest recevied weather packets stored in our database for station/object KC9Q. If no packets are shown the sender has not sent any weather packets the latest 10 day(s).
| Time | Temp. | Humidity | Pressure | Rain* | Wind** | Luminosity | Snow |
|---|---|---|---|---|---|---|---|
| 1778016989 | 17.22° C | 99% | 1006.2 hPa | 0.51 mm | - | 51 W/m² | - |
| 1778016685 | 17.22° C | 99% | 1006.3 hPa | 1.27 mm | - | 58 W/m² | - |
| 1778016381 | 17.22° C | 99% | 1006.1 hPa | 1.78 mm | - | 72 W/m² | - |
| 1778016079 | 17.22° C | 99% | 1006.3 hPa | 2.29 mm | - | 58 W/m² | - |
| 1778015775 | 17.22° C | 99% | 1006.2 hPa | 3.05 mm | - | 70 W/m² | - |
| 1778015473 | 17.22° C | 99% | 1006.4 hPa | 2.29 mm | - | 67 W/m² | - |
| 1778015169 | 17.22° C | 99% | 1006.4 hPa | 2.29 mm | - | 45 W/m² | - |
| 1778014866 | 17.22° C | 99% | 1006.5 hPa | 1.78 mm | - | 44 W/m² | - |
| 1778014564 | 17.22° C | 99% | 1006.4 hPa | 2.29 mm | - | 27 W/m² | - |
| 1778014261 | 17.22° C | 99% | 1006.3 hPa | 2.29 mm | - | 38 W/m² | - |
| 1778013958 | 17.22° C | 99% | 1006.3 hPa | 1.27 mm | - | 60 W/m² | - |
| 1778013656 | 17.78° C | 99% | 1006.3 hPa | 1.78 mm | - | 84 W/m² | - |
| 1778013352 | 17.22° C | 99% | 1006.2 hPa | 2.29 mm | - | 91 W/m² | - |
| 1778013050 | 17.22° C | 99% | 1006.2 hPa | 2.29 mm | - | 95 W/m² | - |
| 1778012745 | 17.22° C | 99% | 1006.5 hPa | 2.29 mm | - | 73 W/m² | - |
| 1778012441 | 17.22° C | 99% | 1006.5 hPa | 1.78 mm | - | 67 W/m² | - |
| 1778012138 | 17.22° C | 99% | 1006.3 hPa | 1.78 mm | - | 76 W/m² | - |
| 1778011836 | 17.22° C | 99% | 1006.6 hPa | 1.78 mm | - | 66 W/m² | - |
| 1778011534 | 17.22° C | 99% | 1006.9 hPa | 1.78 mm | - | 68 W/m² | - |
| 1778011230 | 17.22° C | 99% | 1006.7 hPa | 1.78 mm | - | 69 W/m² | - |
| 1778010926 | 17.22° C | 99% | 1006.6 hPa | 1.78 mm | - | 62 W/m² | - |
| 1778010624 | 17.22° C | 99% | 1006.6 hPa | 1.27 mm | - | 93 W/m² | - |
| 1778010321 | 17.22° C | 99% | 1006.7 hPa | 1.27 mm | - | 82 W/m² | - |
| 1778010016 | 17.22° C | 99% | 1006.7 hPa | 1.78 mm | - | 81 W/m² | - |
| 1778009714 | 17.22° C | 99% | 1006.5 hPa | 1.27 mm | - | 71 W/m² | - |
* Rain latest hour (hover to see other rain measurements)
** Current wind speed in m/s (hover to see current wind gust speed)